Погода в Карпели

Россия / Тамбовская область     52°01′36″N   40°48′49″E
темп.,
°C
ветер,
м/с
пор.,
м/с
влажн.,
%
обл.,
%
осадки,
мм/ч
давл.,
гПа
погр.,
м
7 марта, вс
вс700:00−12зсз47930 0.0 1018119
03:00−12з47920 0.0 101896
06:00−12зюз47930 0.0 1018121
09:00−9юз612882 0.0 1016448
12:00−4юз8147998 0.0 1013969
15:00−3юз9167299 0.0 10091069
18:00−3юз91772100 0.0 1005970
21:00−2зюз101794100 0.3 10031059
8 марта, пн
пн800:00−2зюз101793100 0.4 10021016
03:00−4з61280100 0.9 1003300
06:00−7юз498394 0.0 1003151
09:00−4зюз599397 0.1 1003550
12:00−2з71086100 0.4 10031112
15:00−2з61081100 0.7 10041091
18:00−6зсз4108467 0.1 1005200
21:00−8з479039 0.1 1008132
9 марта, вт
вт900:00−11зсз349228 0.0 100961
03:00−11зсз379428 0.0 1011120
06:00−13зсз369784 0.0 1012112
09:00−11сз369591 0.1 1014276
12:00−9сз3588100 0.1 1015570
15:00−9сз4686100 0.1 1016708
18:00−12ссз349298 0.0 101770
21:00−16ссз349356 0.0 102067
10 марта, ср
ср1000:00−17сз34950 0.0 102039
03:00−17сз349833 0.0 102249
06:00−19сз349819 0.0 102344
09:00−18ссз489410 0.0 1025271
12:00−15ссз368727 0.0 1026456
15:00−14сз248427 0.0 1026504
18:00−18с129043 0.0 102620
21:00−19св228961 0.0 102820
11 марта, чт
чт1100:00−21в229069 0.0 102820
03:00−22юв228437 0.0 102920
06:00−22юв338253 0.0 102928
09:00−18ююв458461 0.0 1029136
12:00−12ююв578982 0.0 1028272
15:00−8ю598689 0.0 1027554
18:00−9ююв488556 0.0 1025132
21:00−11ю487946 0.0 1025109